Location: Amsterdam
(30.7274°N, 84.4357°W)
Time: 19:43:06
(UTC+00:00)

Altair - Pass Details

Date: 13 August 2024
Orbit: 1501 x 1682 km, 47.2° (Epoch: 07 September)

Event Time Altitude Azimuth Distance (km) Brightness Sun altitude
Rises 19:19:28 0° 284° (WNW) 4,867 10.4 62.4°
Reaches altitude 10° 19:23:16 10° 295° (WNW) 3,855 10.0 61.7°
Maximum altitude 19:31:31 30° 353° (N) 2,571 9.0 60.1°
Drops below altitude 10° 19:39:33 10° 51° (NE) 3,733 9.3 58.5°
Sets 19:43:10 0° 63° (ENE) 4,691 9.7 57.8°
